Theta_e
287 288 288 286 285 282 283 283 281 280 279 278 278 277 277 277 277 276 276 276 276 276 276 276 277 277 276 276 277 276 275 275 272 274 276 277 277 276 277 278 278 277 278
288 287 286 284 282 282 282 280 279 279 278 277 277 277 276 276 276 275 275 275 275 274 275 274 274 275 274 274 274 274 274 274 273 271 273 274 275 276 276 276 277 278 277
287 285 284 282 282 282 280 278 278 277 277 277 276 275 275 275 275 275 275 274 274 273 273 273 273 273 273 273 273 273 274 275 274 273 272 274 274 275 275 275 276 276 277
286 284 283 283 282 281 278 278 278 277 276 275 275 275 275 275 275 274 274 273 273 273 274 274 273 273 273 273 274 274 274 273 273 272 272 272 273 275 275 273 273 275 275
285 284 283 282 281 277 277 277 276 276 275 275 274 274 274 274 274 274 274 273 273 273 274 274 275 275 276 276 275 274 275 274 273 273 272 273 273 274 273 274 273 274 275
284 283 282 280 278 277 277 276 276 275 274 274 274 274 273 273 276 278 276 274 274 274 273 274 274 274 275 277 278 279 278 274 273 273 273 272 272 273 274 273 272 271 270
284 282 279 278 277 276 276 275 275 274 274 274 274 273 273 273 277 278 278 276 275 274 273 273 274 274 274 274 276 278 278 278 279 276 273 273 272 273 274 273 273 272 272
282 280 278 277 276 275 274 274 273 273 273 273 273 273 272 273 277 277 277 275 274 274 273 273 273 273 275 275 275 274 275 275 276 276 275 275 275 276 276 275 274 273 274
279 278 277 276 275 274 273 273 273 273 273 272 272 272 272 272 276 276 275 274 274 273 273 274 274 274 276 277 275 274 273 273 277 278 278 278 279 280 280 277 274 273 271
278 278 276 275 274 273 273 272 273 273 272 272 271 271 271 269 273 275 275 272 268 272 273 274 276 274 276 277 275 273 271 270 271 273 273 273 273 273 276 275 274 272 271
276 274 274 274 274 273 272 272 271 272 271 270 270 270 270 270 270 275 275 273 271 271 272 271 273 274 276 277 277 272 270 274 273 268 268 269 270 271 273 276 277 275 272
273 273 273 273 272 271 270 269 270 270 268 268 267 268 270 271 272 274 274 275 275 267 269 271 271 275 275 275 273 274 275 273 267 266 266 267 268 269 271 273 275 276 277
272 270 271 270 270 270 269 268 268 269 268 267 268 268 269 271 271 273 273 274 274 273 271 272 272 272 272 270 271 272 270 266 266 265 265 267 269 271 271 271 273 275 276
271 270 270 268 267 268 269 269 268 267 267 268 268 268 268 268 268 269 269 271 273 271 270 265 268 268 269 269 267 268 267 267 266 266 266 267 269 270 269 271 270 271 271
270 269 268 268 267 267 268 267 268 269 270 269 269 268 267 266 268 271 271 270 265 269 260 258 260 263 263 264 264 265 266 266 266 266 266 266 268 268 268 270 269 268 268
269 268 268 267 267 267 266 267 272 272 274 274 273 270 269 271 273 273 273 272 270 270 254 253 259 260 261 262 262 263 265 265 266 266 265 267 267 268 267 267 267 266 266
270 268 267 267 267 266 267 267 267 272 275 274 273 273 272 272 273 272 272 269 269 263 250 251 256 258 259 261 262 262 263 264 266 266 265 267 268 267 266 265 265 265 265
270 267 267 267 267 267 267 268 268 267 267 268 273 272 272 273 273 272 268 263 253 253 247 249 251 256 258 259 260 261 262 263 264 265 265 268 268 266 265 264 264 264 264
269 268 267 267 267 267 267 266 266 266 265 264 264 268 267 272 272 269 264 254 250 247 247 248 250 255 257 258 259 260 261 262 263 264 265 268 267 266 265 265 265 264 264
269 268 267 266 266 265 265 264 263 263 262 262 261 259 256 258 255 251 252 248 247 249 248 247 251 253 254 256 257 259 260 261 262 265 265 268 267 266 265 264 264 264 264
267 267 266 266 265 265 264 263 262 262 260 260 259 257 261 256 254 252 249 247 246 246 246 246 251 252 253 255 256 258 259 261 263 265 266 267 266 265 265 265 264 264 264
266 265 265 264 263 262 262 262 261 260 259 258 257 259 265 255 253 251 247 246 246 244 246 247 249 251 252 254 256 257 258 260 263 264 267 267 266 265 265 264 264 264 264
264 263 262 262 262 261 260 260 259 259 258 257 257 256 254 252 250 248 247 246 244 244 245 244 247 250 252 253 255 257 258 261 263 266 267 266 265 265 265 264 263 263 263
263 262 261 260 260 260 259 258 258 257 256 256 255 253 253 251 249 248 247 245 242 245 245 245 246 248 250 253 255 257 259 262 265 268 267 266 265 265 264 264 264 263 263
262 261 260 260 259 258 258 257 257 256 255 255 253 253 251 252 250 247 246 242 244 244 246 247 247 249 250 251 253 255 259 263 266 269 267 266 265 264 264 264 263 263 262
261 260 259 259 258 258 257 256 256 256 255 254 253 252 252 251 249 247 245 244 246 246 247 247 249 249 250 252 255 259 263 266 270 269 267 266 265 264 264 263 263 263 262
Wind_Speed
15 16 16 14 12 9 12 12 12 10 11 12 12 11 10 9 7 6 6 5 5 4 4 5 7 6 4 4 5 6 7 9 16 27 16 15 18 18 16 15 16 17 16
16 14 15 12 12 13 13 11 11 13 11 11 10 9 8 7 7 6 6 5 5 5 5 5 7 6 7 6 6 8 10 11 13 25 23 18 20 18 19 19 16 15 17
14 14 13 13 14 15 13 12 12 12 12 10 10 10 9 8 7 6 6 6 6 5 5 6 7 7 8 7 9 9 9 10 12 15 23 17 19 17 18 18 18 17 16
14 15 15 16 16 14 13 14 13 12 12 10 9 9 8 7 8 7 7 6 5 5 6 7 7 8 10 11 11 12 12 13 14 15 18 20 17 17 16 16 18 13 15
15 15 16 13 12 12 14 15 14 14 12 11 10 8 8 7 6 7 7 6 6 5 6 8 8 10 18 19 11 12 13 13 12 14 16 17 17 16 18 14 17 17 16
16 17 14 16 16 16 15 15 14 13 13 13 12 11 9 6 12 13 10 7 8 7 6 8 8 12 15 22 24 26 23 17 18 15 16 18 24 19 17 17 17 17 21
15 13 14 15 16 16 16 15 15 14 11 12 10 10 10 8 15 13 12 6 6 4 7 9 9 9 12 13 20 27 26 29 32 23 23 21 24 21 20 22 21 20 21
13 13 14 15 16 16 16 16 15 13 14 13 11 10 9 8 15 13 12 6 5 6 7 10 11 12 13 15 16 17 17 18 18 16 20 22 21 21 20 20 23 25 21
14 15 15 16 16 15 15 15 13 12 12 11 10 10 10 8 13 11 9 5 6 7 8 10 11 12 17 24 18 18 18 18 19 28 32 38 40 39 33 19 17 17 19
12 12 12 14 15 15 14 12 10 10 9 8 9 8 9 8 11 11 8 3 3 5 7 9 11 13 22 25 17 16 17 18 20 19 17 19 24 24 35 24 17 19 18
7 9 11 11 12 13 13 10 12 11 10 9 9 9 10 10 10 13 9 4 4 4 3 5 6 18 23 27 26 13 16 23 22 15 16 14 15 16 15 16 16 17 16
8 10 11 11 10 10 14 12 13 14 11 10 9 7 7 8 11 12 9 6 7 3 3 5 8 20 23 24 20 23 27 25 12 13 14 14 14 14 13 17 18 16 17
9 8 10 11 9 10 13 13 11 12 11 9 8 7 7 7 4 9 6 5 5 4 3 9 18 18 19 14 20 24 19 10 12 13 14 15 15 15 19 18 17 19 22
15 15 13 13 14 11 9 10 11 11 10 9 9 8 7 6 5 4 3 4 4 4 3 4 9 12 13 14 10 12 10 10 12 13 14 15 16 15 14 14 14 14 15
11 12 11 9 12 12 10 10 10 10 13 13 9 9 9 7 5 9 8 5 4 2 3 3 3 5 7 8 8 10 10 10 11 12 14 15 15 15 14 12 14 14 14
14 12 12 12 12 13 11 8 13 14 16 18 20 15 8 11 11 8 7 6 2 7 4 1 3 5 7 8 9 10 10 13 12 13 14 15 16 15 16 14 13 13 14
14 11 9 12 14 12 14 15 14 14 18 19 20 19 18 14 11 8 8 9 7 7 1 1 3 5 7 8 9 10 12 12 16 13 15 15 16 15 17 14 13 13 13
13 18 13 11 11 12 13 13 13 14 13 9 15 15 15 18 14 9 9 9 4 3 1 2 4 5 7 7 9 10 11 12 13 14 15 15 16 14 15 14 13 14 14
13 12 13 12 12 13 10 11 11 13 13 10 5 9 5 16 14 10 8 4 2 1 2 3 3 5 7 8 9 9 11 12 14 14 15 15 17 15 15 14 14 19 18
12 16 14 13 12 13 11 11 11 10 12 11 9 7 2 5 3 1 2 2 1 2 3 3 4 6 8 8 8 9 11 12 13 13 15 16 17 15 16 16 15 15 14
10 12 15 11 12 12 11 11 10 10 10 9 8 6 13 5 5 4 3 2 2 3 4 3 6 7 7 7 7 9 11 12 13 14 14 17 18 17 16 15 16 14 15
10 12 12 12 10 10 10 10 10 10 9 10 7 5 17 4 4 4 3 3 3 4 4 4 6 6 7 7 8 9 11 13 14 15 14 18 18 17 17 17 16 15 14
12 13 12 11 12 15 11 9 9 9 10 9 7 6 5 3 3 3 2 3 2 4 4 3 5 7 6 6 7 7 10 13 13 15 15 17 17 18 18 17 17 17 16
13 13 13 12 12 12 11 10 9 10 10 8 6 5 5 3 3 3 2 3 2 5 4 5 5 7 8 8 8 8 10 12 13 11 16 16 17 21 18 18 17 21 16
11 12 13 12 12 12 12 10 10 9 9 7 6 5 3 3 3 2 3 3 3 4 5 6 4 7 10 12 13 16 17 23 22 12 12 16 20 24 20 17 20 19 20
11 12 11 11 11 11 10 10 10 9 7 6 5 4 3 3 3 2 3 3 3 4 6 5 7 10 13 12 13 18 20 22 21 15 12 13 16 17 18 20 26 18 21
Wind_Direction
195 195 197 198 192 172 184 189 179 158 158 160 163 165 168 168 172 168 177 181 199 210 221 234 250 246 241 237 245 245 249 247 263 288 284 292 291 294 294 288 284 280 279
202 195 195 178 171 175 186 175 160 159 161 161 167 165 164 161 160 168 179 184 196 214 231 232 252 263 261 261 256 254 251 251 261 277 289 293 287 288 287 286 281 277 278
195 187 186 182 181 186 177 163 160 155 159 159 162 168 169 168 164 172 181 186 194 203 217 238 255 259 267 265 261 258 256 257 256 266 282 286 287 290 286 281 280 277 273
191 187 189 189 188 180 165 162 162 162 158 159 163 156 169 165 166 180 190 193 206 216 223 242 254 262 267 270 265 266 265 262 258 258 267 279 279 283 281 288 285 272 277
187 188 193 181 171 159 161 165 162 165 163 157 154 157 164 163 173 176 196 195 213 219 239 256 256 261 268 271 273 270 267 265 265 267 268 272 277 283 282 285 279 289 280
187 190 178 167 166 171 167 164 161 165 163 160 165 161 163 170 193 203 196 196 210 235 251 265 272 269 265 275 281 285 281 281 274 272 279 278 279 276 276 277 280 282 284
187 177 169 168 169 175 166 164 170 170 158 164 165 162 168 173 195 202 213 214 225 237 261 274 277 272 275 277 278 281 283 281 278 282 282 278 283 280 280 278 275 271 273
177 171 169 170 169 174 169 167 163 161 164 166 169 170 165 176 192 199 209 212 231 246 255 264 268 279 277 285 290 283 279 278 278 273 267 275 273 276 267 267 268 269 268
177 178 174 171 170 167 169 168 163 161 161 162 159 167 169 169 185 196 208 206 226 247 255 264 269 280 290 295 296 291 294 290 292 291 291 290 286 286 287 284 273 270 271
183 174 162 162 165 168 162 161 156 157 154 149 153 162 164 153 189 200 206 165 214 248 265 273 280 290 304 302 302 306 301 309 302 294 305 303 296 284 283 274 271 267 267
127 137 150 160 161 157 146 154 149 148 145 151 156 164 166 170 183 187 202 194 198 244 260 282 290 307 304 315 310 314 299 303 313 317 305 296 292 288 286 277 259 256 259
129 141 149 150 149 153 149 149 156 145 148 160 160 174 177 179 177 178 196 236 266 138 261 295 293 314 318 318 319 310 314 319 309 302 301 296 296 294 294 294 293 278 253
143 151 148 140 144 157 154 153 156 150 152 168 174 171 164 155 160 175 178 229 308 295 296 309 332 324 325 319 313 319 322 310 305 299 303 298 295 298 297 290 281 281 277
168 166 167 161 151 160 163 167 166 163 159 169 170 161 150 151 162 165 192 241 256 279 340 336 331 331 320 315 308 313 309 302 301 297 298 299 295 299 298 293 291 296 286
162 163 170 164 162 160 171 176 177 182 170 164 161 153 151 161 198 196 186 190 187 238 65 31 328 323 320 320 317 313 309 303 302 301 301 300 296 301 297 296 297 290 283
170 177 175 165 174 163 157 159 179 165 170 151 148 142 140 157 187 174 150 105 75 51 52 341 306 313 312 312 315 311 309 308 309 307 306 298 307 307 308 302 294 288 286
178 174 180 172 168 180 164 155 151 158 150 149 151 155 154 152 168 176 121 105 83 71 98 291 285 300 298 302 305 306 306 309 312 306 306 304 312 308 309 303 298 293 286
180 165 173 177 178 174 167 160 149 148 149 152 164 155 168 147 160 162 125 91 50 2 148 253 259 285 290 299 301 300 303 306 310 312 306 308 316 311 309 303 299 295 290
176 173 172 165 176 163 164 148 143 140 140 136 155 143 191 153 150 141 92 95 161 298 270 271 237 276 287 289 289 297 303 303 308 307 307 314 320 316 309 304 300 298 291
178 174 169 159 162 153 159 149 143 142 138 160 150 149 184 79 108 179 81 110 146 254 275 269 297 282 277 278 292 303 308 309 311 311 310 320 322 318 312 310 307 303 295
162 160 161 155 158 152 149 148 143 145 151 149 147 152 167 142 162 145 128 207 201 245 256 261 283 275 275 283 296 310 311 310 308 316 308 327 324 320 317 313 309 303 297
155 155 152 152 141 139 136 137 142 140 142 138 138 191 140 131 150 125 157 233 245 250 255 257 274 271 276 287 302 310 306 308 311 318 315 329 326 323 321 320 315 312 305
143 146 142 137 131 127 123 125 136 136 135 133 140 114 130 148 150 131 180 247 251 268 254 252 266 285 280 284 298 291 295 303 308 309 330 329 329 328 326 324 322 319 315
143 142 136 128 127 124 126 132 125 128 126 124 134 145 141 161 156 135 216 258 272 272 269 267 256 269 283 299 302 298 292 300 308 311 335 329 330 330 329 327 326 324 318
135 131 128 130 132 128 130 126 127 127 120 146 148 132 136 162 138 142 247 256 269 283 288 283 273 283 294 303 297 296 300 308 315 333 341 332 334 337 335 329 331 330 331
121 118 121 121 119 125 125 129 124 122 137 138 124 118 162 169 146 189 244 267 277 294 301 283 296 302 305 303 298 302 309 317 320 358 344 335 340 340 339 335 337 340 338